Kokomo, IN

11:18 PM EDT on September 18, 2019 (GMT -0400)
Kokomo Municipal

Weather History for KOKK - August, 2019

Change the Weather History Date:

Monday, August 19, 2019

  Actual Average (WUND) Record (WUND)
Temperature  
Mean Temperature 75 °F -  
Max Temperature 84 °F - - (-1)
Min Temperature 66 °F - - (-1)
Cooling Degree Days 10    
Growing Degree Days 25 (Base 50)    
Moisture  
Dew Point 71 °F    
Average Humidity 86    
Maximum Humidity 100    
Minimum Humidity 65    
Precipitation  
Precipitation 0.00 in - - ()
Sea Level Pressure  
Sea Level Pressure 30.03 in    
Wind  
Wind Speed 3 mph ()    
Max Wind Speed 7 mph    
Max Gust Speed -    
Visibility 9.9 miles    
Events      
Averages and records for this station are not official NWS values.
T = Trace of Precipitation, MM = Missing Value Source: Averaged Metar Reports

Daily Weather History Graph

Daily Weather History Graph

Search for Another Location

Airport or City:

Astronomy

Aug. 19, 2019 Rise Set
Actual Time 5:58 AM CDT 7:36 PM CDT
Civil Twilight 5:29 AM CDT 8:05 PM CDT
Nautical Twilight 4:54 AM CDT 8:40 PM CDT
Astronomical Twilight 4:17 AM CDT 9:17 PM CDT
Moon 9:56 PM CDT 9:40 AM CDT
Length of Visible Light 14h 35m
Length of Day
13h 37m
Waning Gibbous, 85% of the Moon is Illuminated
Aug 19
Waning Gibbous
Aug 23
Last Quarter
Aug 30
New
Sep 5
First Quarter
Sep 13
Full

Hourly Weather History & Observations

Time (CDT) Temp. Heat Index Dew Point Humidity Pressure Visibility Wind Dir Wind Speed Gust Speed Precip Events Conditions
12:56 AM 66.0 °F - 66.0 °F 100% 29.97 in 10.0 mi SSE 3.5 mph - N/A   Mostly Cloudy
1:56 AM 66.0 °F - 66.0 °F 100% 29.97 in 10.0 mi SSE 5.8 mph - N/A   Clear
2:56 AM 66.9 °F - 66.9 °F 100% 29.97 in 10.0 mi SSE 3.5 mph - N/A   Mostly Cloudy
3:56 AM 66.0 °F - 66.0 °F 100% 29.97 in 10.0 mi South 3.5 mph - N/A   Partly Cloudy
4:56 AM 66.9 °F - 66.9 °F 100% 29.97 in 10.0 mi SSW 5.8 mph - N/A   Overcast
5:56 AM 66.9 °F - 66.9 °F 100% 29.99 in 10.0 mi South 3.5 mph - N/A   Overcast
6:56 AM 69.1 °F - 69.1 °F 100% 30.01 in 10.0 mi North 3.5 mph - N/A   Clear
7:48 AM 71.6 °F - 69.8 °F 94% 30.04 in 10.0 mi Calm Calm - N/A   Partly Cloudy
7:56 AM 72.0 °F - 69.1 °F 91% 30.04 in 10.0 mi Calm Calm - N/A   Clear
8:56 AM 75.9 °F - 71.1 °F 85% 30.04 in 10.0 mi North 5.8 mph - N/A   Partly Cloudy
9:56 AM 77.0 °F - 70.0 °F 79% 30.06 in 10.0 mi Calm Calm - N/A   Mostly Cloudy
10:40 AM 78.8 °F - 71.6 °F 78% 30.07 in 10.0 mi ESE 3.5 mph - N/A   Overcast
10:56 AM 78.1 °F - 71.1 °F 79% 30.06 in 10.0 mi Calm Calm - N/A   Overcast
11:56 AM 80.1 °F 83.8 °F 72.0 °F 76% 30.06 in 10.0 mi ESE 3.5 mph - N/A   Overcast
12:40 PM 80.6 °F 85.4 °F 73.4 °F 79% 30.07 in 10.0 mi SSE 5.8 mph - N/A   Partly Cloudy
12:56 PM 82.0 °F 87.9 °F 73.9 °F 76% 30.06 in 10.0 mi SSE 6.9 mph - N/A   Mostly Cloudy
1:19 PM 82.4 °F 88.2 °F 73.4 °F 74% 30.07 in 10.0 mi East 6.9 mph - N/A   Scattered Clouds
1:56 PM 82.9 °F 89.4 °F 73.9 °F 74% 30.05 in 10.0 mi Variable 3.5 mph - N/A   Partly Cloudy
2:56 PM 84.0 °F 90.2 °F 73.0 °F 69% 30.04 in 10.0 mi South 5.8 mph - N/A   Clear
3:56 PM 84.9 °F 91.4 °F 73.0 °F 67% 30.02 in 10.0 mi Calm Calm - N/A   Clear
4:56 PM 84.9 °F 90.7 °F 72.0 °F 65% 30.01 in 10.0 mi SSE 3.5 mph - N/A   Clear
5:56 PM 84.9 °F 90.7 °F 72.0 °F 65% 30.01 in 10.0 mi East 3.5 mph - N/A   Clear
6:56 PM 84.0 °F 92.6 °F 75.9 °F 76% 30.00 in 10.0 mi Calm Calm - N/A   Clear
7:56 PM 77.0 °F - 75.0 °F 94% 30.02 in 10.0 mi Calm Calm - N/A   Clear
8:56 PM 73.9 °F - 73.0 °F 97% 30.03 in 9.0 mi Calm Calm - N/A   Clear
9:56 PM 72.0 °F - 72.0 °F 100% 30.04 in 9.0 mi ESE 3.5 mph - N/A   Clear
10:56 PM 72.0 °F - 72.0 °F 100% 30.04 in 10.0 mi Calm Calm - N/A   Clear
11:56 PM 71.1 °F - 71.1 °F 100% 30.05 in 10.0 mi Calm Calm - N/A   Clear